Lid_Strength_Index
13 12 12 12 13 12 14 15 17 16 16 12 13 12 11 8 8 7 7 7 6 6 6 5 5 4 4 3 3 3 2 2 3 2 2 2 2 2 2 2 2 1 1 2
14 11 12 14 12 12 12 14 15 14 14 10 10 11 10 8 8 8 7 7 6 5 5 5 4 4 3 3 3 2 2 3 2 2 2 2 2 2 2 2 1 1 2 2
17 12 13 16 13 12 12 12 13 16 12 11 12 11 9 8 8 8 7 6 6 5 5 4 4 3 4 3 2 2 3 2 2 2 2 2 2 2 2 2 1 2 2 2
17 15 21 12 9 10 12 11 11 11 10 11 11 10 7 7 7 7 6 6 5 5 4 4 4 4 4 3 3 3 3 2 2 2 2 2 2 2 2 1 2 2 3 3
18 18 14 12 11 12 13 13 10 11 11 11 8 8 8 6 6 6 6 5 5 4 4 4 4 4 4 4 3 3 3 3 2 2 2 2 2 2 2 2 2 3 3 3
16 19 21 14 10 8 9 16 9 9 11 9 9 13 10 6 5 5 5 4 4 4 4 5 5 5 5 4 3 3 3 2 2 2 2 2 2 2 2 2 2 3 3 3
16 17 15 11 9 8 16 15 9 8 9 9 10 9 7 6 5 4 5 4 4 4 5 5 6 5 5 4 3 3 2 2 2 2 2 2 2 2 2 2 2 3 3 3
15 17 19 10 11 13 10 8 8 8 9 8 7 7 6 6 5 5 5 4 4 4 5 5 5 5 4 4 3 2 2 2 2 2 2 2 2 2 2 2 3 3 4 3
14 14 11 11 12 10 9 10 7 7 7 8 8 8 6 6 6 5 4 4 4 4 6 6 5 4 4 3 3 3 3 3 3 2 2 2 2 3 3 3 3 4 4 3
13 13 14 11 7 7 6 7 6 6 8 9 9 8 7 6 6 5 4 4 4 5 6 7 5 5 4 4 3 3 3 3 3 2 3 2 2 2 3 3 3 3 3 4
12 11 9 8 7 6 6 6 6 7 8 8 8 8 7 7 6 5 5 5 5 5 5 6 6 5 5 3 3 3 3 3 3 3 2 3 3 3 3 2 3 3 3 3
13 9 9 8 6 7 7 7 7 8 9 8 7 7 6 7 6 6 5 4 5 5 5 6 6 5 4 3 2 2 3 3 3 3 3 3 4 5 12 10 9 9 9 5
8 7 6 6 6 6 8 8 7 8 9 9 8 7 7 7 6 6 7 7 5 5 5 5 6 5 4 2 2 2 3 3 3 3 3 3 3 3 4 7 11 11 12 10
7 7 9 8 8 7 7 8 8 8 9 9 9 9 8 7 7 7 7 7 6 5 5 6 6 6 4 2 2 2 2 7 2 2 3 3 3 3 3 4 4 4 11 10
8 8 9 8 8 7 7 9 9 10 10 9 9 9 9 9 8 8 7 8 7 7 8 8 8 7 6 5 2 2 2 2 2 2 3 4 4 3 4 4 4 3 6 9
9 9 9 9 9 9 10 10 11 10 9 10 10 10 9 9 9 10 8 8 10 10 10 9 9 7 7 7 4 2 2 6 5 2 3 3 4 4 4 4 4 3 3 4
9 10 10 11 9 9 10 10 10 11 11 11 10 10 10 9 10 11 11 9 9 10 10 9 10 7 7 7 7 5 3 3 6 2 2 2 3 4 4 4 5 4 3 4
8 9 9 9 10 10 10 10 10 11 11 11 11 11 11 11 11 11 11 12 11 11 10 10 10 8 7 8 8 6 4 3 3 2 2 2 3 2 3 4 4 4 4 5
7 8 8 8 9 9 10 10 10 11 11 11 12 12 12 11 11 11 11 12 13 13 12 11 13 10 9 10 10 6 5 4 3 3 2 5 3 3 3 3 3 3 4 5
6 7 7 8 8 9 10 10 11 11 11 11 12 12 12 13 12 12 11 12 12 13 12 12 12 12 11 11 13 6 5 5 5 4 4 4 4 3 3 6 3 3 3 3
6 7 7 8 9 9 9 10 11 11 11 11 12 13 12 12 12 12 13 13 12 12 12 14 13 14 11 12 8 7 7 6 5 5 5 5 4 4 5 4 3 3 2 2
6 6 7 8 8 9 9 10 10 11 11 12 12 13 13 13 12 12 13 14 12 14 13 13 14 15 14 13 9 9 9 9 8 7 6 5 5 4 3 3 3 3 4 4
7 6 6 6 7 8 9 9 10 11 11 12 12 13 13 13 12 13 14 13 12 14 14 14 15 16 15 11 11 11 11 11 10 9 9 8 7 7 7 7 6 5 5 5
7 6 6 6 7 7 9 10 10 10 11 11 12 12 12 13 12 12 12 13 14 14 14 14 15 15 14 13 12 12 13 13 12 11 11 12 10 10 10 10 9 8 7 8
6 6 6 6 7 8 9 9 10 10 11 12 12 11 12 12 12 12 12 12 13 13 13 14 15 14 13 13 13 13 14 14 13 13 12 12 12 12 11 11 10 10 10 10
6 6 6 6 7 7 8 9 10 11 11 11 11 11 12 12 12 12 12 13 13 13 13 13 14 13 13 14 13 13 14 14 14 14 14 14 13 13 13 12 11 11 11 11
6 7 7 7 7 7 8 8 9 10 11 11 12 11 11 11 12 12 13 13 14 14 14 14 14 14 14 14 14 14 14 14 15 15 15 15 14 14 14 13 13 12 12 12